STARLINK-34259

Last updated on Tue Sep 16 2025 00:02:07 GMT+0000 (Coordinated Universal Time)

1 65368U 25190T 25257.98724420 -.00592185 00000+0 -65931-2 0 9999 2 65368 53.1585 267.9033 0002233 15.9653 344.1432 15.64066578 2805
UTC large
Height (km)
Speed (km/s)
/
Latitude / Longitude
Inclination (degrees)
Orbital Period (minutes)
Azimuth
Elevation
Range (km)
Doppler Factor

Next 0 passes for location: London (51.5072 / 0.1276)

Sorry there are no passes over London.